QPF
0.00 0.00 0.00 0.00 0.00 0.00 0.00 0.00 0.00 0.01 0.01 0.01 0.02 0.01 0.01 0.01 0.00 0.00 0.00 0.00 0.01 0.00 0.01 0.01 0.01 0.01 0.01 0.01 0.01 0.01 0.01 0.01 0.02 0.02 0.02 0.03 0.04 0.04 0.03 0.03 0.04 0.04 0.06 0.08 0.08 0.09 0.09 0.10 0.09
0.00 0.00 0.00 0.00 0.00 0.00 0.00 0.01 0.01 0.01 0.01 0.01 0.01 0.01 0.00 0.00 0.00 0.00 0.00 0.00 0.00 0.00 0.00 0.00 0.01 0.01 0.01 0.02 0.02 0.01 0.01 0.01 0.01 0.02 0.02 0.03 0.05 0.05 0.03 0.03 0.04 0.04 0.06 0.09 0.11 0.13 0.13 0.11 0.09
0.00 0.00 0.00 0.00 0.00 0.01 0.00 0.00 0.00 0.01 0.01 0.02 0.01 0.01 0.00 0.00 0.00 0.00 0.00 0.00 0.00 0.00 0.00 0.00 0.01 0.01 0.01 0.01 0.01 0.01 0.01 0.01 0.01 0.01 0.03 0.05 0.05 0.04 0.02 0.04 0.05 0.06 0.06 0.08 0.11 0.14 0.18 0.13 0.09
0.00 0.00 0.00 0.00 0.00 0.00 0.00 0.00 0.01 0.02 0.02 0.01 0.01 0.00 0.00 0.00 0.00 0.00 0.00 0.00 0.00 0.00 0.00 0.00 0.01 0.00 0.00 0.00 0.01 0.01 0.01 0.01 0.01 0.01 0.03 0.04 0.06 0.03 0.02 0.03 0.04 0.04 0.04 0.04 0.07 0.10 0.17 0.16 0.11
0.00 0.00 0.00 0.00 0.00 0.00 0.00 0.01 0.01 0.01 0.01 0.01 0.01 0.01 0.00 0.00 0.00 0.00 0.00 0.00 0.00 0.00 0.00 0.00 0.01 0.01 0.00 0.00 0.01 0.01 0.01 0.01 0.01 0.01 0.01 0.02 0.03 0.01 0.02 0.03 0.03 0.04 0.05 0.04 0.04 0.07 0.11 0.13 0.11
0.00 0.00 0.01 0.01 0.00 0.00 0.01 0.01 0.01 0.01 0.00 0.00 0.00 0.01 0.00 0.00 0.00 0.00 0.00 0.00 0.00 0.00 0.00 0.00 0.01 0.01 0.00 0.00 0.01 0.01 0.01 0.01 0.01 0.01 0.01 0.01 0.01 0.01 0.01 0.02 0.03 0.03 0.04 0.04 0.04 0.05 0.10 0.14 0.13
0.00 0.00 0.01 0.00 0.00 0.01 0.01 0.01 0.01 0.01 0.01 0.01 0.00 0.00 0.00 0.00 0.00 0.00 0.00 0.00 0.00 0.00 0.00 0.01 0.02 0.01 0.01 0.00 0.00 0.00 0.00 0.01 0.01 0.02 0.02 0.01 0.01 0.01 0.01 0.01 0.02 0.03 0.03 0.04 0.05 0.07 0.10 0.11 0.13
0.00 0.00 0.01 0.00 0.00 0.01 0.01 0.01 0.01 0.01 0.01 0.01 0.00 0.00 0.00 0.00 0.00 0.00 0.00 0.00 0.00 0.00 0.00 0.01 0.02 0.01 0.00 0.00 0.00 0.00 0.00 0.01 0.00 0.01 0.01 0.01 0.01 0.02 0.02 0.01 0.02 0.03 0.03 0.06 0.07 0.07 0.07 0.09 0.10
0.00 0.00 0.00 0.00 0.00 0.00 0.00 0.02 0.02 0.01 0.02 0.01 0.01 0.00 0.00 0.00 0.00 0.00 0.01 0.00 0.01 0.00 0.01 0.01 0.01 0.00 0.00 0.00 0.00 0.00 0.00 0.00 0.00 0.01 0.01 0.01 0.01 0.01 0.02 0.02 0.03 0.04 0.05 0.06 0.06 0.06 0.05 0.06 0.07
0.00 0.00 0.00 0.00 0.00 0.00 0.00 0.01 0.01 0.01 0.03 0.02 0.01 0.00 0.00 0.00 0.00 0.00 0.00 0.00 0.00 0.00 0.01 0.01 0.01 0.00 0.00 0.00 0.00 0.00 0.00 0.00 0.01 0.01 0.01 0.00 0.00 0.01 0.02 0.03 0.03 0.04 0.05 0.05 0.07 0.07 0.06 0.04 0.03
0.00 0.00 0.00 0.00 0.00 0.00 0.01 0.01 0.01 0.02 0.03 0.02 0.01 0.01 0.01 0.00 0.00 0.00 0.00 0.00 0.00 0.00 0.00 0.01 0.01 0.00 0.00 0.00 0.00 0.00 0.00 0.00 0.01 0.01 0.00 0.00 0.00 0.01 0.01 0.01 0.03 0.04 0.06 0.06 0.07 0.08 0.04 0.03 0.02
0.00 0.00 0.00 0.00 0.00 0.00 0.00 0.01 0.01 0.02 0.03 0.02 0.01 0.01 0.01 0.00 0.00 0.00 0.00 0.00 0.00 0.00 0.00 0.00 0.01 0.00 0.00 0.00 0.00 0.00 0.00 0.00 0.00 0.01 0.01 0.01 0.01 0.01 0.01 0.01 0.02 0.04 0.06 0.04 0.05 0.07 0.03 0.02 0.02
0.00 0.00 0.00 0.00 0.00 0.00 0.00 0.00 0.01 0.01 0.01 0.01 0.01 0.00 0.00 0.00 0.00 0.00 0.00 0.00 0.00 0.00 0.00 0.01 0.01 0.02 0.01 0.01 0.00 0.00 0.00 0.00 0.00 0.01 0.01 0.01 0.01 0.01 0.01 0.00 0.01 0.04 0.05 0.02 0.03 0.04 0.04 0.03 0.03
0.00 0.00 0.00 0.00 0.00 0.00 0.00 0.00 0.00 0.01 0.01 0.01 0.00 0.00 0.00 0.00 0.00 0.00 0.00 0.00 0.00 0.00 0.01 0.02 0.04 0.05 0.03 0.01 0.01 0.00 0.00 0.00 0.00 0.01 0.02 0.02 0.02 0.01 0.01 0.01 0.01 0.02 0.02 0.01 0.02 0.03 0.04 0.03 0.02
0.00 0.00 0.00 0.00 0.00 0.00 0.00 0.00 0.00 0.00 0.01 0.00 0.00 0.00 0.00 0.00 0.00 0.00 0.00 0.00 0.01 0.00 0.01 0.02 0.03 0.04 0.02 0.01 0.01 0.01 0.01 0.01 0.01 0.01 0.02 0.02 0.02 0.01 0.01 0.02 0.02 0.02 0.02 0.01 0.02 0.03 0.03 0.03 0.03
0.00 0.00 0.00 0.01 0.00 0.00 0.00 0.00 0.00 0.00 0.00 0.00 0.00 0.00 0.00 0.00 0.00 0.00 0.00 0.00 0.01 0.01 0.01 0.02 0.03 0.03 0.02 0.02 0.03 0.02 0.01 0.01 0.02 0.01 0.02 0.02 0.01 0.01 0.01 0.01 0.01 0.02 0.02 0.02 0.02 0.03 0.03 0.03 0.04
0.00 0.00 0.00 0.00 0.00 0.00 0.00 0.00 0.00 0.00 0.01 0.01 0.00 0.00 0.00 0.00 0.00 0.00 0.00 0.01 0.01 0.01 0.01 0.03 0.04 0.03 0.03 0.03 0.03 0.02 0.02 0.02 0.03 0.03 0.02 0.02 0.02 0.01 0.01 0.02 0.02 0.02 0.02 0.02 0.02 0.03 0.03 0.03 0.05
0.00 0.00 0.00 0.00 0.00 0.00 0.00 0.00 0.00 0.01 0.01 0.01 0.01 0.01 0.01 0.01 0.01 0.01 0.01 0.01 0.01 0.01 0.02 0.03 0.06 0.06 0.04 0.04 0.03 0.02 0.02 0.02 0.03 0.03 0.04 0.03 0.02 0.02 0.02 0.02 0.03 0.03 0.02 0.02 0.02 0.03 0.04 0.06 0.05
0.00 0.00 0.00 0.00 0.00 0.00 0.00 0.00 0.01 0.01 0.02 0.02 0.02 0.02 0.02 0.01 0.01 0.01 0.01 0.01 0.01 0.01 0.02 0.03 0.04 0.04 0.04 0.04 0.03 0.02 0.02 0.03 0.03 0.04 0.05 0.04 0.03 0.02 0.02 0.04 0.05 0.05 0.04 0.04 0.03 0.03 0.04 0.05 0.04
0.00 0.00 0.00 0.00 0.00 0.00 0.00 0.00 0.00 0.01 0.01 0.02 0.02 0.02 0.03 0.02 0.01 0.01 0.01 0.01 0.01 0.02 0.04 0.04 0.04 0.03 0.03 0.03 0.02 0.02 0.04 0.05 0.05 0.05 0.05 0.04 0.03 0.03 0.03 0.04 0.04 0.05 0.05 0.05 0.03 0.03 0.04 0.05 0.04
0.00 0.00 0.00 0.00 0.00 0.00 0.00 0.00 0.00 0.01 0.01 0.01 0.01 0.01 0.01 0.01 0.01 0.02 0.02 0.02 0.02 0.03 0.04 0.04 0.02 0.02 0.03 0.03 0.03 0.03 0.04 0.06 0.06 0.06 0.06 0.06 0.05 0.04 0.03 0.03 0.03 0.04 0.05 0.05 0.05 0.05 0.05 0.06 0.03
0.00 0.00 0.00 0.00 0.00 0.00 0.00 0.00 0.00 0.01 0.01 0.01 0.01 0.01 0.01 0.01 0.01 0.02 0.02 0.02 0.02 0.02 0.03 0.02 0.02 0.02 0.03 0.03 0.03 0.04 0.04 0.04 0.05 0.06 0.06 0.08 0.07 0.05 0.04 0.04 0.04 0.04 0.04 0.05 0.06 0.06 0.06 0.06 0.04
0.00 0.00 0.00 0.00 0.00 0.00 0.00 0.00 0.00 0.00 0.01 0.01 0.01 0.01 0.02 0.02 0.01 0.01 0.01 0.01 0.01 0.02 0.02 0.02 0.02 0.02 0.02 0.02 0.03 0.04 0.04 0.05 0.06 0.05 0.05 0.06 0.07 0.04 0.03 0.03 0.03 0.03 0.04 0.04 0.05 0.04 0.05 0.05 0.04
0.00 0.00 0.00 0.00 0.00 0.00 0.00 0.00 0.00 0.00 0.01 0.01 0.01 0.02 0.02 0.02 0.02 0.01 0.01 0.01 0.02 0.02 0.02 0.02 0.03 0.03 0.02 0.02 0.02 0.03 0.04 0.04 0.04 0.03 0.03 0.04 0.05 0.03 0.02 0.02 0.02 0.03 0.03 0.05 0.04 0.03 0.04 0.03 0.03
0.00 0.00 0.00 0.00 0.00 0.00 0.00 0.00 0.00 0.00 0.01 0.01 0.01 0.02 0.02 0.02 0.03 0.03 0.04 0.03 0.03 0.03 0.04 0.06 0.06 0.04 0.02 0.02 0.02 0.03 0.03 0.03 0.03 0.02 0.02 0.03 0.04 0.03 0.03 0.03 0.03 0.03 0.03 0.03 0.04 0.04 0.04 0.04 0.03
0.00 0.00 0.00 0.00 0.00 0.00 0.00 0.00 0.00 0.00 0.01 0.01 0.02 0.01 0.01 0.02 0.03 0.04 0.03 0.03 0.04 0.06 0.07 0.08 0.08 0.04 0.01 0.01 0.01 0.02 0.02 0.02 0.02 0.02 0.02 0.02 0.04 0.03 0.03 0.03 0.04 0.05 0.05 0.05 0.04 0.04 0.05 0.05 0.04
0.00 0.00 0.00 0.00 0.00 0.00 0.00 0.00 0.00 0.00 0.01 0.01 0.01 0.01 0.01 0.02 0.03 0.04 0.04 0.04 0.05 0.05 0.05 0.05 0.05 0.03 0.01 0.01 0.01 0.01 0.01 0.02 0.02 0.02 0.03 0.02 0.04 0.04 0.04 0.03 0.03 0.04 0.04 0.05 0.05 0.04 0.04 0.04 0.04
0.00 0.00 0.00 0.00 0.00 0.00 0.00 0.01 0.01 0.01 0.01 0.01 0.01 0.01 0.01 0.01 0.01 0.03 0.04 0.03 0.03 0.04 0.04 0.04 0.04 0.04 0.03 0.02 0.01 0.01 0.01 0.02 0.03 0.03 0.03 0.03 0.04 0.04 0.04 0.04 0.03 0.03 0.03 0.04 0.04 0.04 0.04 0.03 0.03
0.00 0.00 0.01 0.01 0.01 0.00 0.00 0.00 0.01 0.01 0.01 0.01 0.01 0.01 0.01 0.01 0.01 0.03 0.04 0.03 0.03 0.03 0.03 0.04 0.05 0.04 0.04 0.02 0.02 0.02 0.02 0.03 0.03 0.03 0.04 0.04 0.04 0.04 0.03 0.03 0.03 0.03 0.04 0.05 0.04 0.05 0.05 0.04 0.04
0.00 0.01 0.01 0.01 0.01 0.01 0.00 0.00 0.01 0.01 0.01 0.01 0.01 0.01 0.01 0.01 0.02 0.02 0.03 0.03 0.02 0.02 0.02 0.02 0.05 0.05 0.04 0.04 0.03 0.03 0.05 0.07 0.07 0.06 0.06 0.06 0.06 0.05 0.04 0.03 0.03 0.03 0.03 0.04 0.05 0.06 0.05 0.05 0.05
MSLP
1007.57 1008.60 1009.64 1010.54 1011.14 1011.35 1011.18 1010.69 1010.02 1009.33 1008.78 1008.47 1008.44 1008.63 1008.96 1009.29 1009.47 1009.43 1009.14 1008.63 1008.00 1007.36 1006.82 1006.47 1006.31 1006.33 1006.43 1006.52 1006.52 1006.39 1006.12 1005.74 1005.34 1005.00 1004.78 1004.72 1004.83 1005.08 1005.41 1005.79 1006.16 1006.52 1006.87 1007.22 1007.61 1008.05 1008.55 1009.10 1009.66
1008.14 1009.29 1010.37 1011.19 1011.63 1011.61 1011.17 1010.42 1009.51 1008.64 1007.97 1007.61 1007.59 1007.83 1008.24 1008.66 1008.95 1009.01 1008.81 1008.40 1007.86 1007.31 1006.85 1006.55 1006.43 1006.46 1006.56 1006.65 1006.65 1006.53 1006.29 1005.97 1005.63 1005.35 1005.19 1005.16 1005.27 1005.49 1005.77 1006.08 1006.38 1006.68 1006.99 1007.33 1007.73 1008.18 1008.69 1009.23 1009.79
1008.84 1010.04 1011.08 1011.78 1012.03 1011.77 1011.09 1010.10 1008.99 1007.99 1007.24 1006.86 1006.84 1007.13 1007.59 1008.07 1008.43 1008.56 1008.46 1008.15 1007.72 1007.27 1006.91 1006.68 1006.62 1006.67 1006.76 1006.84 1006.82 1006.70 1006.47 1006.18 1005.90 1005.68 1005.57 1005.58 1005.70 1005.90 1006.15 1006.41 1006.67 1006.93 1007.22 1007.55 1007.95 1008.41 1008.93 1009.47 1010.00
1009.58 1010.77 1011.72 1012.25 1012.29 1011.82 1010.93 1009.78 1008.57 1007.50 1006.74 1006.36 1006.37 1006.68 1007.16 1007.67 1008.05 1008.23 1008.18 1007.96 1007.63 1007.30 1007.04 1006.90 1006.89 1006.96 1007.05 1007.09 1007.04 1006.89 1006.65 1006.37 1006.13 1005.96 1005.90 1005.95 1006.10 1006.31 1006.55 1006.79 1007.03 1007.28 1007.57 1007.90 1008.31 1008.78 1009.30 1009.83 1010.34
1010.27 1011.38 1012.19 1012.54 1012.39 1011.76 1010.75 1009.54 1008.31 1007.28 1006.57 1006.25 1006.30 1006.63 1007.10 1007.58 1007.94 1008.12 1008.10 1007.93 1007.69 1007.45 1007.29 1007.23 1007.26 1007.34 1007.41 1007.40 1007.29 1007.09 1006.82 1006.54 1006.32 1006.19 1006.18 1006.29 1006.48 1006.72 1006.98 1007.23 1007.48 1007.73 1008.03 1008.37 1008.79 1009.27 1009.78 1010.29 1010.77
1010.80 1011.78 1012.42 1012.60 1012.31 1011.59 1010.57 1009.40 1008.28 1007.38 1006.81 1006.60 1006.71 1007.05 1007.49 1007.91 1008.20 1008.32 1008.28 1008.12 1007.92 1007.76 1007.66 1007.66 1007.72 1007.79 1007.82 1007.75 1007.58 1007.32 1007.01 1006.72 1006.50 1006.41 1006.44 1006.60 1006.84 1007.12 1007.41 1007.69 1007.96 1008.23 1008.54 1008.90 1009.32 1009.80 1010.30 1010.79 1011.24
1011.10 1011.92 1012.38 1012.43 1012.06 1011.35 1010.42 1009.42 1008.52 1007.84 1007.47 1007.41 1007.59 1007.94 1008.32 1008.64 1008.83 1008.85 1008.74 1008.55 1008.35 1008.21 1008.15 1008.17 1008.23 1008.28 1008.26 1008.13 1007.89 1007.58 1007.23 1006.93 1006.72 1006.65 1006.72 1006.91 1007.19 1007.50 1007.82 1008.12 1008.40 1008.69 1009.02 1009.39 1009.82 1010.29 1010.78 1011.25 1011.67
1011.16 1011.80 1012.12 1012.08 1011.71 1011.09 1010.35 1009.61 1009.01 1008.62 1008.49 1008.60 1008.86 1009.20 1009.51 1009.71 1009.75 1009.64 1009.43 1009.17 1008.93 1008.77 1008.70 1008.71 1008.75 1008.76 1008.69 1008.51 1008.22 1007.86 1007.50 1007.19 1006.99 1006.93 1007.02 1007.23 1007.52 1007.84 1008.17 1008.47 1008.75 1009.05 1009.38 1009.76 1010.19 1010.66 1011.14 1011.60 1012.00
1011.00 1011.50 1011.71 1011.64 1011.34 1010.91 1010.43 1010.01 1009.74 1009.66 1009.78 1010.04 1010.38 1010.69 1010.91 1010.97 1010.86 1010.61 1010.27 1009.91 1009.61 1009.40 1009.28 1009.25 1009.24 1009.20 1009.08 1008.86 1008.55 1008.18 1007.81 1007.51 1007.32 1007.28 1007.37 1007.57 1007.84 1008.14 1008.43 1008.71 1008.98 1009.26 1009.59 1009.97 1010.40 1010.88 1011.36 1011.82 1012.21
1010.74 1011.12 1011.27 1011.24 1011.09 1010.88 1010.70 1010.62 1010.69 1010.90 1011.23 1011.62 1011.98 1012.25 1012.36 1012.28 1012.02 1011.62 1011.16 1010.70 1010.32 1010.03 1009.86 1009.76 1009.69 1009.59 1009.43 1009.18 1008.86 1008.50 1008.15 1007.87 1007.71 1007.67 1007.75 1007.93 1008.15 1008.39 1008.62 1008.85 1009.08 1009.34 1009.65 1010.03 1010.47 1010.96 1011.46 1011.92 1012.32
1010.48 1010.80 1010.97 1011.03 1011.06 1011.11 1011.24 1011.47 1011.83 1012.27 1012.75 1013.20 1013.55 1013.74 1013.73 1013.52 1013.12 1012.61 1012.04 1011.50 1011.03 1010.67 1010.41 1010.23 1010.08 1009.93 1009.72 1009.46 1009.14 1008.81 1008.51 1008.27 1008.13 1008.10 1008.16 1008.28 1008.44 1008.60 1008.76 1008.92 1009.10 1009.33 1009.63 1010.01 1010.47 1010.98 1011.49 1011.98 1012.39
1010.36 1010.67 1010.90 1011.11 1011.35 1011.66 1012.07 1012.57 1013.13 1013.72 1014.27 1014.71 1015.00 1015.08 1014.95 1014.61 1014.12 1013.51 1012.88 1012.27 1011.74 1011.30 1010.96 1010.69 1010.45 1010.23 1009.98 1009.70 1009.40 1009.11 1008.85 1008.66 1008.56 1008.53 1008.56 1008.63 1008.72 1008.81 1008.89 1008.99 1009.12 1009.32 1009.62 1010.01 1010.48 1011.01 1011.55 1012.06 1012.49
1010.44 1010.79 1011.14 1011.53 1011.99 1012.54 1013.18 1013.87 1014.57 1015.21 1015.74 1016.11 1016.28 1016.23 1015.98 1015.55 1014.99 1014.35 1013.68 1013.04 1012.46 1011.96 1011.53 1011.17 1010.84 1010.53 1010.22 1009.92 1009.64 1009.38 1009.18 1009.03 1008.95 1008.93 1008.94 1008.97 1009.00 1009.02 1009.05 1009.10 1009.21 1009.40 1009.69 1010.10 1010.60 1011.15 1011.72 1012.24 1012.68
1010.75 1011.20 1011.69 1012.27 1012.95 1013.72 1014.53 1015.34 1016.08 1016.70 1017.13 1017.37 1017.39 1017.21 1016.85 1016.36 1015.77 1015.13 1014.48 1013.84 1013.24 1012.69 1012.18 1011.71 1011.28 1010.87 1010.50 1010.16 1009.87 1009.63 1009.46 1009.35 1009.30 1009.28 1009.28 1009.29 1009.28 1009.27 1009.27 1009.31 1009.41 1009.61 1009.92 1010.35 1010.87 1011.44 1012.01 1012.53 1012.97
1011.25 1011.81 1012.47 1013.24 1014.12 1015.05 1015.99 1016.86 1017.59 1018.11 1018.41 1018.49 1018.36 1018.06 1017.62 1017.09 1016.51 1015.91 1015.30 1014.69 1014.09 1013.49 1012.91 1012.34 1011.80 1011.29 1010.83 1010.44 1010.12 1009.87 1009.71 1009.62 1009.58 1009.57 1009.57 1009.57 1009.56 1009.55 1009.55 1009.61 1009.74 1009.96 1010.30 1010.74 1011.27 1011.83 1012.39 1012.90 1013.32
1011.83 1012.51 1013.33 1014.27 1015.32 1016.39 1017.42 1018.30 1018.98 1019.40 1019.56 1019.48 1019.21 1018.80 1018.32 1017.79 1017.24 1016.70 1016.15 1015.58 1014.99 1014.37 1013.71 1013.05 1012.40 1011.78 1011.23 1010.76 1010.39 1010.12 1009.95 1009.85 1009.81 1009.80 1009.80 1009.81 1009.82 1009.84 1009.88 1009.98 1010.15 1010.41 1010.77 1011.22 1011.73 1012.28 1012.81 1013.28 1013.67
1012.38 1013.16 1014.11 1015.21 1016.39 1017.57 1018.65 1019.54 1020.16 1020.47 1020.51 1020.31 1019.94 1019.47 1018.96 1018.45 1017.97 1017.50 1017.01 1016.49 1015.91 1015.26 1014.55 1013.80 1013.05 1012.33 1011.69 1011.14 1010.70 1010.38 1010.17 1010.05 1009.99 1009.97 1009.97 1010.00 1010.04 1010.10 1010.21 1010.36 1010.59 1010.89 1011.26 1011.70 1012.18 1012.68 1013.16 1013.60 1013.96
1012.78 1013.64 1014.70 1015.90 1017.19 1018.45 1019.57 1020.46 1021.03 1021.28 1021.24 1020.96 1020.54 1020.04 1019.55 1019.09 1018.66 1018.26 1017.84 1017.36 1016.79 1016.12 1015.37 1014.55 1013.72 1012.91 1012.19 1011.56 1011.06 1010.68 1010.41 1010.24 1010.14 1010.09 1010.09 1010.13 1010.20 1010.32 1010.49 1010.71 1010.98 1011.31 1011.69 1012.10 1012.54 1012.97 1013.39 1013.78 1014.11
1012.99 1013.89 1015.00 1016.28 1017.64 1018.96 1020.11 1021.00 1021.57 1021.79 1021.72 1021.42 1021.00 1020.52 1020.06 1019.66 1019.30 1018.95 1018.58 1018.13 1017.57 1016.88 1016.10 1015.24 1014.35 1013.50 1012.71 1012.03 1011.46 1011.02 1010.68 1010.44 1010.28 1010.19 1010.16 1010.20 1010.30 1010.46 1010.69 1010.96 1011.28 1011.63 1012.00 1012.37 1012.75 1013.11 1013.47 1013.80 1014.12
1013.00 1013.89 1015.03 1016.35 1017.74 1019.10 1020.28 1021.19 1021.78 1022.02 1021.96 1021.70 1021.31 1020.89 1020.49 1020.14 1019.83 1019.53 1019.19 1018.75 1018.20 1017.51 1016.71 1015.84 1014.94 1014.06 1013.24 1012.52 1011.91 1011.40 1010.99 1010.67 1010.43 1010.28 1010.20 1010.22 1010.33 1010.52 1010.78 1011.10 1011.45 1011.82 1012.17 1012.50 1012.82 1013.11 1013.41 1013.71 1014.02
1012.86 1013.73 1014.85 1016.18 1017.58 1018.95 1020.16 1021.10 1021.72 1022.01 1022.02 1021.82 1021.51 1021.16 1020.83 1020.53 1020.27 1020.00 1019.67 1019.24 1018.68 1018.00 1017.21 1016.35 1015.46 1014.59 1013.78 1013.05 1012.40 1011.83 1011.34 1010.93 1010.60 1010.36 1010.23 1010.20 1010.29 1010.49 1010.78 1011.13 1011.51 1011.88 1012.22 1012.52 1012.79 1013.03 1013.27 1013.55 1013.87
1012.70 1013.52 1014.61 1015.91 1017.30 1018.67 1019.88 1020.85 1021.52 1021.87 1021.96 1021.86 1021.63 1021.37 1021.10 1020.86 1020.62 1020.36 1020.03 1019.60 1019.05 1018.38 1017.61 1016.79 1015.94 1015.11 1014.32 1013.59 1012.92 1012.30 1011.74 1011.24 1010.80 1010.46 1010.24 1010.15 1010.21 1010.39 1010.69 1011.07 1011.47 1011.85 1012.20 1012.48 1012.72 1012.93 1013.15 1013.40 1013.73
1012.63 1013.40 1014.45 1015.70 1017.05 1018.39 1019.60 1020.58 1021.29 1021.71 1021.88 1021.87 1021.74 1021.55 1021.35 1021.15 1020.93 1020.67 1020.34 1019.90 1019.35 1018.70 1017.97 1017.19 1016.40 1015.62 1014.87 1014.16 1013.47 1012.81 1012.17 1011.56 1011.02 1010.57 1010.25 1010.08 1010.08 1010.24 1010.54 1010.93 1011.35 1011.77 1012.13 1012.43 1012.67 1012.88 1013.08 1013.34 1013.67
1012.75 1013.48 1014.47 1015.67 1016.97 1018.26 1019.44 1020.41 1021.14 1021.60 1021.85 1021.91 1021.87 1021.75 1021.60 1021.43 1021.23 1020.96 1020.62 1020.18 1019.64 1019.01 1018.32 1017.59 1016.86 1016.14 1015.42 1014.72 1014.02 1013.31 1012.60 1011.90 1011.25 1010.69 1010.26 1010.00 1009.93 1010.05 1010.33 1010.73 1011.19 1011.64 1012.04 1012.38 1012.66 1012.89 1013.11 1013.37 1013.71
1013.12 1013.81 1014.76 1015.89 1017.11 1018.33 1019.45 1020.39 1021.11 1021.60 1021.89 1022.02 1022.04 1021.98 1021.87 1021.73 1021.53 1021.26 1020.91 1020.47 1019.94 1019.33 1018.68 1018.00 1017.32 1016.64 1015.96 1015.27 1014.55 1013.80 1013.02 1012.23 1011.47 1010.80 1010.26 1009.91 1009.76 1009.83 1010.08 1010.48 1010.96 1011.46 1011.92 1012.33 1012.66 1012.94 1013.20 1013.48 1013.81
1013.74 1014.41 1015.30 1016.35 1017.48 1018.60 1019.64 1020.51 1021.20 1021.69 1022.00 1022.17 1022.23 1022.22 1022.14 1022.02 1021.82 1021.55 1021.20 1020.75 1020.23 1019.64 1019.02 1018.38 1017.74 1017.10 1016.44 1015.76 1015.02 1014.23 1013.39 1012.52 1011.67 1010.90 1010.26 1009.81 1009.58 1009.58 1009.79 1010.18 1010.67 1011.21 1011.74 1012.22 1012.63 1012.98 1013.29 1013.60 1013.94
1014.55 1015.20 1016.03 1016.99 1018.01 1019.02 1019.94 1020.73 1021.36 1021.82 1022.12 1022.31 1022.40 1022.42 1022.37 1022.26 1022.07 1021.80 1021.44 1021.00 1020.48 1019.91 1019.31 1018.70 1018.08 1017.47 1016.83 1016.14 1015.40 1014.58 1013.70 1012.77 1011.85 1010.99 1010.25 1009.71 1009.39 1009.31 1009.46 1009.81 1010.30 1010.87 1011.45 1012.00 1012.50 1012.93 1013.31 1013.67 1014.02
1015.46 1016.08 1016.85 1017.70 1018.60 1019.47 1020.27 1020.95 1021.50 1021.92 1022.21 1022.40 1022.51 1022.55 1022.51 1022.41 1022.23 1021.95 1021.59 1021.15 1020.64 1020.08 1019.49 1018.90 1018.31 1017.71 1017.08 1016.41 1015.66 1014.83 1013.93 1012.97 1011.99 1011.07 1010.26 1009.62 1009.21 1009.03 1009.10 1009.39 1009.84 1010.41 1011.02 1011.64 1012.21 1012.74 1013.19 1013.60 1013.98
1016.38 1016.96 1017.64 1018.38 1019.13 1019.86 1020.52 1021.09 1021.56 1021.92 1022.19 1022.38 1022.50 1022.55 1022.53 1022.43 1022.25 1021.98 1021.61 1021.16 1020.65 1020.10 1019.53 1018.95 1018.38 1017.79 1017.18 1016.53 1015.80 1014.98 1014.08 1013.12 1012.12 1011.16 1010.29 1009.57 1009.05 1008.77 1008.73 1008.92 1009.31 1009.84 1010.45 1011.10 1011.74 1012.34 1012.87 1013.35 1013.77
1017.21 1017.73 1018.31 1018.92 1019.52 1020.10 1020.63 1021.10 1021.49 1021.81 1022.07 1022.25 1022.38 1022.44 1022.42 1022.33 1022.14 1021.86 1021.49 1021.04 1020.53 1019.98 1019.42 1018.86 1018.30 1017.73 1017.15 1016.52 1015.82 1015.04 1014.17 1013.22 1012.24 1011.26 1010.34 1009.55 1008.94 1008.54 1008.37 1008.44 1008.72 1009.18 1009.76 1010.41 1011.08 1011.74 1012.35 1012.89 1013.37
Thickness
5820 5818 5815 5806 5787 5767 5766 5779 5789 5790 5794 5803 5804 5798 5789 5783 5775 5771 5791 5797 5795 5791 5787 5784 5780 5778 5776 5774 5773 5772 5771 5770 5770 5769 5769 5768 5768 5767 5767 5766 5766 5765 5764 5764 5763 5762 5761 5760 5760
5820 5817 5809 5795 5772 5753 5764 5784 5787 5794 5802 5807 5805 5800 5792 5788 5792 5791 5793 5795 5794 5790 5786 5783 5780 5777 5775 5773 5772 5771 5770 5769 5768 5767 5766 5766 5766 5765 5765 5764 5764 5763 5762 5761 5761 5760 5759 5758 5758
5819 5816 5798 5782 5767 5759 5772 5789 5793 5802 5810 5807 5800 5800 5794 5789 5793 5794 5796 5796 5792 5788 5785 5782 5779 5776 5774 5772 5771 5769 5768 5767 5766 5765 5765 5764 5764 5763 5763 5763 5762 5762 5760 5759 5758 5758 5757 5756 5756
5815 5803 5792 5774 5771 5777 5786 5795 5800 5800 5806 5808 5801 5793 5796 5801 5800 5799 5799 5796 5791 5787 5783 5780 5778 5775 5773 5771 5770 5768 5767 5765 5764 5763 5762 5762 5762 5761 5761 5761 5760 5759 5758 5758 5757 5756 5755 5754 5754
5808 5791 5775 5762 5772 5785 5795 5802 5805 5800 5800 5803 5800 5789 5788 5800 5804 5802 5798 5794 5789 5785 5782 5779 5777 5774 5771 5770 5768 5767 5765 5764 5763 5762 5761 5760 5760 5759 5759 5758 5758 5757 5756 5756 5755 5754 5753 5752 5751
5792 5780 5759 5756 5771 5787 5799 5807 5806 5802 5800 5802 5797 5788 5786 5797 5799 5797 5796 5791 5788 5783 5780 5778 5775 5772 5770 5768 5767 5766 5764 5763 5761 5760 5759 5758 5758 5757 5757 5756 5756 5755 5754 5754 5753 5751 5751 5750 5750
5783 5770 5761 5765 5769 5781 5798 5808 5804 5799 5797 5800 5801 5785 5785 5792 5796 5796 5793 5789 5785 5781 5778 5776 5773 5771 5769 5767 5766 5764 5763 5762 5760 5759 5758 5757 5756 5755 5755 5754 5754 5753 5752 5751 5750 5750 5749 5749 5748
5790 5772 5765 5763 5769 5779 5799 5805 5807 5803 5799 5808 5805 5787 5783 5792 5795 5793 5789 5785 5782 5779 5776 5774 5771 5769 5767 5766 5764 5763 5761 5760 5759 5758 5756 5755 5754 5753 5753 5752 5752 5751 5751 5750 5749 5748 5747 5747 5746
5792 5763 5755 5767 5773 5783 5798 5799 5805 5811 5805 5804 5806 5801 5801 5799 5794 5788 5782 5779 5777 5776 5774 5772 5770 5768 5766 5765 5763 5761 5760 5758 5757 5756 5755 5753 5752 5751 5751 5750 5749 5749 5749 5748 5747 5746 5746 5745 5744
5779 5757 5767 5782 5788 5791 5795 5797 5800 5800 5795 5794 5796 5800 5801 5795 5790 5784 5780 5776 5774 5773 5772 5771 5769 5767 5765 5763 5762 5760 5758 5757 5755 5754 5753 5752 5750 5749 5748 5748 5747 5747 5746 5746 5745 5745 5744 5743 5742
5779 5770 5780 5789 5796 5797 5795 5797 5802 5795 5787 5793 5794 5794 5794 5790 5786 5782 5780 5778 5776 5774 5772 5770 5768 5766 5763 5761 5760 5758 5757 5755 5753 5752 5751 5750 5749 5747 5746 5745 5744 5744 5744 5743 5743 5743 5742 5741 5740
5778 5781 5787 5792 5799 5797 5796 5797 5796 5796 5798 5808 5806 5801 5795 5788 5784 5782 5779 5777 5775 5772 5771 5769 5767 5764 5762 5760 5758 5756 5755 5754 5752 5751 5749 5748 5746 5745 5744 5743 5742 5741 5741 5741 5741 5740 5740 5739 5738
5777 5782 5790 5795 5795 5796 5797 5794 5795 5797 5806 5808 5803 5796 5792 5788 5785 5782 5781 5777 5774 5771 5770 5768 5766 5763 5761 5759 5757 5755 5753 5752 5751 5750 5748 5746 5745 5743 5742 5741 5740 5739 5739 5738 5738 5738 5737 5737 5736
5780 5782 5785 5790 5793 5795 5791 5792 5792 5795 5803 5800 5795 5791 5789 5787 5784 5780 5777 5775 5773 5771 5770 5768 5766 5764 5761 5758 5757 5755 5753 5751 5750 5748 5747 5745 5744 5742 5741 5739 5738 5737 5736 5736 5736 5735 5735 5734 5733
5781 5775 5777 5784 5788 5791 5789 5779 5785 5795 5796 5791 5789 5787 5786 5784 5782 5779 5778 5776 5774 5772 5770 5768 5767 5764 5762 5759 5756 5755 5752 5751 5749 5747 5745 5744 5742 5741 5739 5738 5736 5735 5734 5734 5734 5733 5732 5731 5731
5772 5762 5756 5773 5782 5786 5778 5762 5783 5790 5789 5783 5784 5784 5782 5781 5781 5781 5779 5776 5774 5771 5769 5768 5767 5764 5761 5759 5756 5754 5752 5750 5748 5746 5744 5743 5742 5740 5738 5736 5735 5734 5733 5732 5731 5730 5729 5728 5727
5748 5742 5748 5761 5776 5777 5771 5762 5779 5785 5783 5779 5780 5780 5779 5777 5778 5779 5779 5776 5774 5771 5768 5766 5764 5761 5759 5757 5754 5752 5750 5748 5747 5745 5743 5742 5740 5739 5737 5735 5733 5732 5731 5730 5730 5728 5727 5725 5724
5737 5741 5745 5750 5766 5768 5761 5761 5773 5778 5778 5775 5776 5776 5775 5774 5775 5778 5777 5775 5773 5770 5767 5765 5762 5759 5757 5755 5752 5749 5748 5746 5745 5744 5742 5741 5739 5738 5736 5734 5732 5731 5729 5728 5727 5725 5724 5723 5722
5746 5743 5740 5750 5765 5761 5756 5757 5765 5771 5771 5769 5769 5771 5771 5773 5776 5776 5774 5773 5770 5767 5765 5762 5759 5757 5755 5752 5749 5746 5744 5744 5743 5742 5741 5740 5738 5737 5735 5732 5730 5729 5727 5726 5725 5723 5721 5719 5719
5743 5738 5739 5749 5761 5757 5752 5753 5763 5768 5768 5770 5770 5770 5770 5769 5770 5771 5771 5770 5768 5765 5762 5759 5757 5755 5754 5752 5750 5747 5745 5743 5742 5741 5740 5738 5737 5735 5734 5731 5729 5727 5726 5724 5723 5721 5718 5716 5716
5738 5736 5739 5741 5749 5752 5748 5743 5753 5762 5766 5767 5769 5770 5769 5769 5768 5768 5767 5766 5765 5763 5761 5760 5757 5755 5754 5752 5748 5745 5742 5740 5738 5737 5737 5736 5735 5733 5732 5730 5728 5726 5725 5722 5721 5720 5717 5713 5713
5731 5746 5745 5742 5732 5723 5735 5717 5740 5750 5754 5759 5763 5765 5767 5768 5768 5767 5766 5765 5764 5763 5762 5759 5756 5754 5752 5750 5746 5742 5739 5737 5736 5736 5735 5734 5733 5732 5730 5728 5726 5724 5723 5721 5720 5718 5716 5714 5711
5740 5748 5743 5737 5726 5717 5721 5714 5724 5741 5744 5753 5760 5764 5767 5768 5768 5767 5766 5765 5764 5762 5760 5758 5755 5752 5750 5748 5745 5742 5739 5738 5736 5734 5733 5732 5731 5730 5728 5727 5725 5723 5721 5719 5718 5716 5715 5713 5710
5745 5736 5726 5715 5708 5699 5713 5708 5713 5729 5741 5751 5758 5763 5765 5767 5767 5766 5765 5763 5760 5759 5758 5756 5753 5750 5749 5747 5744 5741 5738 5736 5734 5732 5730 5729 5728 5727 5726 5725 5723 5721 5719 5718 5716 5715 5713 5711 5709
5733 5712 5693 5691 5682 5689 5709 5706 5711 5736 5747 5751 5755 5759 5763 5764 5763 5761 5759 5758 5757 5756 5755 5753 5750 5748 5746 5744 5742 5740 5737 5735 5733 5731 5729 5727 5726 5725 5724 5723 5721 5719 5718 5716 5715 5713 5711 5709 5707
5722 5713 5689 5680 5677 5685 5701 5700 5717 5741 5749 5753 5755 5757 5759 5760 5760 5760 5759 5758 5756 5755 5752 5751 5747 5745 5744 5742 5740 5738 5735 5733 5731 5729 5727 5726 5725 5724 5723 5721 5719 5717 5716 5714 5712 5710 5709 5707 5705
5714 5706 5708 5687 5682 5679 5687 5702 5721 5739 5743 5745 5749 5751 5752 5755 5757 5758 5757 5756 5755 5753 5751 5749 5746 5743 5741 5740 5738 5735 5733 5731 5729 5727 5725 5724 5723 5722 5720 5718 5717 5715 5713 5711 5710 5708 5706 5705 5703
5719 5705 5690 5679 5668 5668 5681 5692 5701 5721 5729 5736 5739 5742 5747 5750 5752 5754 5753 5753 5752 5752 5750 5747 5744 5741 5739 5737 5735 5734 5731 5729 5727 5724 5722 5721 5720 5719 5717 5716 5713 5712 5710 5709 5707 5705 5704 5702 5700
5705 5697 5684 5673 5673 5665 5665 5684 5715 5719 5725 5728 5733 5738 5742 5745 5747 5749 5750 5749 5748 5747 5745 5742 5740 5737 5735 5734 5732 5730 5728 5726 5724 5722 5720 5718 5717 5716 5714 5713 5711 5710 5707 5706 5704 5702 5700 5699 5697
5706 5696 5684 5675 5669 5665 5664 5680 5719 5719 5721 5723 5727 5733 5737 5739 5741 5743 5744 5743 5742 5740 5739 5737 5735 5733 5732 5730 5728 5726 5725 5723 5722 5720 5718 5715 5713 5712 5711 5710 5708 5707 5704 5702 5701 5698 5697 5695 5693